Date,TemperatureHighF,TemperatureAvgF,TemperatureLowF,DewpointHighF,DewpointAvgF,DewpointLowF,HumidityHigh,HumidityAvg,HumidityLow,PressureMaxIn,PressureMinIn,WindSpeedMaxMPH,WindSpeedAvgMPH,GustSpeedMaxMPH,PrecipitationSumIn
2013-1-1,54.1,44.8,33.5,33.1,24.6,15.2,91,51,26,30.29,30.16,23,4,23,0.00
2013-1-2,61.7,47.2,34.8,25.4,19.8,12.4,62,37,17,30.22,30.09,15,2,15,0.00
2013-1-3,64.5,51.5,37.8,22.6,14.5,7.5,50,25,13,30.24,30.10,16,2,16,0.00
2013-1-4,62.9,49.9,37.8,18.5,9.8,1.8,44,21,9,30.31,30.20,18,3,18,0.00
2013-1-5,63.5,48.2,32.4,26.6,15.3,3.8,58,31,10,30.33,30.21,11,1,11,0.00
2013-1-6,52.1,46.8,38.4,40.4,36.5,21.0,87,68,43,30.23,30.05,17,2,17,0.00
2013-1-7,60.6,48.4,41.6,39.4,29.0,16.0,87,53,19,30.13,30.01,22,5,29,0.00
2013-1-8,72.4,53.2,36.9,38.0,30.4,25.0,67,45,20,30.16,30.06,8,1,14,0.00
2013-1-9,71.3,54.2,41.4,44.0,36.5,32.0,93,55,24,30.18,30.01,8,2,11,0.00
2013-1-10,51.4,46.2,38.1,46.0,35.6,18.0,96,70,27,30.09,29.90,18,4,26,0.01
2013-1-11,48.4,35.6,28.9,27.0,7.9,-99.9,79,45,28,30.21,30.07,9,-117,12,0.00
2013-1-12,50.6,34.4,29.4,25.0,-2.2,-99.9,75,35,15,30.20,30.11,5,-167,8,0.00
2013-1-13,49.9,34.8,30.8,26.0,-1.7,-99.9,72,34,21,30.21,30.08,9,-156,11,0.00
2013-1-14,46.7,34.3,31.6,9.0,-15.0,-99.9,37,16,11,30.39,30.20,16,-146,23,0.00
2013-1-15,58.8,39.6,29.1,21.0,-1.5,-99.9,48,26,22,30.50,30.36,6,-148,10,0.00
2013-1-16,68.0,46.1,36.4,29.0,4.0,-99.9,61,27,19,30.40,30.19,6,-156,10,0.00
2013-1-17,70.6,57.1,39.1,24.0,16.7,12.0,50,23,12,30.25,30.12,15,3,16,0.00
2013-1-18,72.7,58.3,44.1,21.5,18.2,12.8,38,23,11,30.20,30.10,17,3,17,0.00
2013-1-19,72.9,59.1,43.4,24.1,14.4,7.9,41,19,9,30.24,30.12,19,4,19,0.00
2013-1-20,74.0,56.9,38.9,25.3,14.2,4.5,44,22,8,30.19,30.05,12,2,12,0.00
2013-1-21,74.8,55.0,40.1,19.6,12.8,0.5,39,21,6,30.15,30.06,16,2,16,0.00
2013-1-22,77.3,59.5,41.4,26.2,13.3,-4.6,36,19,4,30.15,30.05,12,2,12,0.00
2013-1-23,75.9,61.9,50.2,41.3,28.4,19.5,54,29,15,30.14,30.04,11,1,11,0.00
2013-1-24,64.8,57.0,50.3,54.0,47.9,37.6,94,73,49,30.22,30.11,11,1,11,0.17
2013-1-25,60.2,57.1,54.9,54.8,52.2,47.7,94,84,64,30.17,29.96,15,3,15,0.38
2013-1-26,61.9,56.7,53.1,56.3,54.0,52.0,96,91,78,30.00,29.90,9,1,9,0.01
2013-1-27,56.2,51.1,41.3,53.0,45.7,36.3,95,82,63,30.03,29.96,19,5,19,0.00
2013-1-28,53.8,44.4,35.8,38.6,32.4,27.4,93,66,38,30.22,30.03,17,2,17,0.00
2013-1-29,55.9,44.4,32.7,39.1,34.3,28.2,85,69,42,30.28,30.17,10,1,10,0.00
2013-1-30,65.5,51.4,37.0,41.4,37.9,34.3,91,64,35,30.37,30.25,12,1,12,0.00
2013-1-31,73.2,56.2,38.7,42.6,36.7,33.0,86,54,25,30.29,30.13,11,1,11,0.00